CBERS 4

Last updated on Sun Dec 14 2025 00:02:32 GMT+0000 (Coordinated Universal Time)

1 40336U 14079A 25347.28265992 .00000323 00000+0 12678-3 0 9995 2 40336 98.3306 45.2805 0001652 111.5248 248.6115 14.35518392577284
UTC large
Height (km)
Speed (km/s)
/
Latitude / Longitude
Inclination (degrees)
Orbital Period (minutes)
Azimuth
Elevation
Range (km)
Doppler Factor

Next 0 passes for location: London (51.5072 / 0.1276)

Sorry there are no passes over London.